Location: Albuquerque Trailhead
(34.7934°N, 106.3736°W)
Time: 13:32:11
(UTC+00:00)

NOSS 0 Rocket - Pass Details

Date: 20 June 2021
Orbit: 934 x 956 km, 70.0° (Epoch: 30 July)

Event Time Altitude Azimuth Distance (km) Brightness Sun altitude
Exits shadow 05:42:40 48° 238° (WSW) 1,211 4.3 -28.4°
Maximum altitude 05:44:13 64° 294° (WNW) 1,043 4.2 -28.5°
Drops below altitude 10° 05:50:24 10° 16° (NNE) 2,680 6.9 -29.0°
Sets 05:52:59 0° 20° (NNE) 3,631 7.7 -29.2°
